Overview Statistics Trail Chart Weather Telemetry Raw packets
 

This is the latest recevied weather packets stored in our database for station/object KC0RKM-13. If no packets are shown the sender has not sent any weather packets the latest 10 day(s).

<< 20 21 22 23 24 25 26 >>
Time Temp. Humidity Pressure Rain* Wind** Luminosity Snow
1788260403 25° C 61% 1015.3 hPa 0 mm - - -
1788259804 25° C 60% 1015.2 hPa 0 mm - - -
1788259205 25° C 60% 1015.2 hPa 0 mm - - -
1788258604 25° C 61% 1015 hPa 0 mm - - -
1788258004 24.44° C 62% 1015.3 hPa 0 mm - - -
1788257403 24.44° C 61% 1015 hPa 0 mm - - -
1788256803 24.44° C 61% 1015 hPa 0 mm - - -
1788256203 25° C 60% 1014.8 hPa 0 mm - - -
1788255604 25° C 60% 1014.8 hPa 0 mm - - -
1788255004 25° C 59% 1014.9 hPa 0 mm - - -
1788254408 25° C 58% 1014.6 hPa 0 mm - - -
1788253803 25.56° C 57% 1014.3 hPa 0 mm - - -
1788253204 25.56° C 57% 1014.4 hPa 0 mm - - -
1788252604 25.56° C 57% 1014.3 hPa 0 mm - - -
1788252004 25.56° C 57% 1014.3 hPa 0 mm - - -
1788251404 25.56° C 57% 1014.1 hPa 0 mm - - -
1788250803 26.11° C 56% 1013.9 hPa 0 mm - - -
1788250204 26.11° C 56% 1014.2 hPa 0 mm - - -
1788249604 26.11° C 56% 1013.8 hPa 0 mm - - -
1788249004 26.11° C 55% 1014.1 hPa 0 mm - - -
1788248404 26.11° C 55% 1014.3 hPa 0 mm - - -
1788247804 26.11° C 55% 1014.2 hPa 0 mm - - -
1788247203 26.67° C 53% 1014 hPa 0 mm - - -
1788246604 26.67° C 52% 1014.2 hPa 0 mm - - -
1788246004 27.22° C 51% 1014.2 hPa 0 mm - - -

* Rain latest hour (hover to see other rain measurements)
** Current wind speed in m/s (hover to see current wind gust speed)